When you browse on this site, cookies collect data to enhance your experience and personalize the content and advertising you see.
Visit our Privacy Policy to learn more. By continuing to use the site, you agree to this use of cookies and data.
  • In Lithuania
  • List of Countries
  • For 7 days
  • Water Temperature
  • Satellite Maps
  • Weather Map
  • Weather Widgets
  • user-avatar
    Login

    Hourly Weather Bagaevskaya

    Today, 25 March, Monday

    Time Temperature Precipitation Wind Pressure Humidity
    00:00 +1°C° 0 mm 4 mps 761 mmHg 75%
    01:00 +1°C° 0 mm 4 mps 761 mmHg 77%
    02:00 +1°C° 0 mm 5 mps 760 mmHg 79%
    03:00 +2°C° 0 mm 3 mps 760 mmHg 82%
    04:00 +1°C° 0 mm 4 mps 760 mmHg 83%
    05:00 +1°C° 0 mm 4 mps 760 mmHg 84%
    06:00 +1°C° 0 mm 5 mps 760 mmHg 85%
    07:00 +2°C° 0 mm 5 mps 760 mmHg 82%
    08:00 +3°C° 0 mm 5 mps 760 mmHg 79%
    09:00 +5°C° 0 mm 5 mps 760 mmHg 72%
    10:00 +7°C° 0 mm 5 mps 760 mmHg 66%
    11:00 +8°C° 0 mm 4 mps 760 mmHg 60%
    12:00 +10°C° 0 mm 4 mps 760 mmHg 54%
    13:00 +11°C° 0 mm 4 mps 760 mmHg 53%
    14:00 +11°C° 0 mm 4 mps 760 mmHg 53%
    15:00 +11°C° 0 mm 4 mps 760 mmHg 52%
    16:00 +10°C° 0 mm 4 mps 760 mmHg 55%
    17:00 +10°C° 0 mm 3 mps 760 mmHg 58%
    18:00 +10°C° 0 mm 3 mps 760 mmHg 60%
    19:00 +9°C° 0 mm 3 mps 760 mmHg 65%
    20:00 +7°C° 0 mm 3 mps 760 mmHg 69%
    21:00 +6°C° 0 mm 2 mps 761 mmHg 74%
    22:00 +6°C° 0 mm 2 mps 761 mmHg 74%
    23:00 +5°C° 0 mm 2 mps 761 mmHg 73%

    Tomorrow, 26 March, Tuesday

    Time Temperature Precipitation Wind Pressure Humidity
    00:00 +5°C° 0 mm 2 mps 761 mmHg 73%
    01:00 +5°C° 0 mm 2 mps 761 mmHg 73%
    02:00 +5°C° 0 mm 2 mps 761 mmHg 73%
    03:00 +5°C° 0 mm 2 mps 761 mmHg 73%
    04:00 +4°C° 0 mm 2 mps 761 mmHg 75%
    05:00 +3°C° 0 mm 3 mps 761 mmHg 77%
    06:00 +3°C° 0 mm 3 mps 760 mmHg 79%
    07:00 +4°C° 0 mm 3 mps 761 mmHg 72%
    08:00 +6°C° 0 mm 4 mps 761 mmHg 66%
    09:00 +7°C° 0 mm 4 mps 761 mmHg 60%
    10:00 +10°C° 0 mm 4 mps 761 mmHg 54%
    11:00 +11°C° 0 mm 4 mps 760 mmHg 49%
    12:00 +13°C° 0 mm 5 mps 760 mmHg 43%
    13:00 +14°C° 0 mm 4 mps 760 mmHg 41%
    14:00 +14°C° 0 mm 4 mps 759 mmHg 39%
    15:00 +15°C° 0 mm 4 mps 759 mmHg 37%
    16:00 +14°C° 0 mm 3 mps 759 mmHg 40%
    17:00 +15°C° 0 mm 2 mps 759 mmHg 43%
    18:00 +14°C° 0 mm 2 mps 758 mmHg 47%
    19:00 +13°C° 0 mm 1 mps 758 mmHg 49%
    20:00 +12°C° 0 mm 1 mps 759 mmHg 52%
    21:00 +11°C° 0 mm 1 mps 759 mmHg 55%
    22:00 +10°C° 0 mm 1 mps 758 mmHg 58%
    23:00 +10°C° 0 mm 1 mps 758 mmHg 60%

    Day after tomorrow, 27 March, Wednesday

    Time Temperature Precipitation Wind Pressure Humidity
    00:00 +8°C° 0 mm 2 mps 758 mmHg 63%
    01:00 +7°C° 0 mm 2 mps 758 mmHg 64%
    02:00 +7°C° 0 mm 2 mps 758 mmHg 66%
    03:00 +6°C° 0 mm 2 mps 758 mmHg 68%
    04:00 +6°C° 0 mm 2 mps 758 mmHg 70%
    05:00 +5°C° 0 mm 2 mps 758 mmHg 72%
    06:00 +6°C° 0 mm 1 mps 758 mmHg 74%
    07:00 +6°C° 0 mm 2 mps 758 mmHg 74%
    08:00 +7°C° 0 mm 2 mps 758 mmHg 73%
    09:00 +8°C° 0 mm 2 mps 759 mmHg 73%
    10:00 +9°C° 0.1 mm 3 mps 759 mmHg 72%
    11:00 +10°C° 0.1 mm 3 mps 759 mmHg 71%
    12:00 +11°C° 0.1 mm 4 mps 759 mmHg 70%
    13:00 +11°C° 0.1 mm 4 mps 759 mmHg 64%
    14:00 +12°C° 0.1 mm 5 mps 759 mmHg 57%
    15:00 +13°C° 0.1 mm 6 mps 759 mmHg 51%
    16:00 +11°C° 0 mm 6 mps 759 mmHg 49%
    17:00 +10°C° 0 mm 6 mps 759 mmHg 47%
    18:00 +9°C° 0 mm 6 mps 759 mmHg 45%
    19:00 +8°C° 0 mm 6 mps 760 mmHg 48%
    20:00 +7°C° 0 mm 6 mps 760 mmHg 50%
    21:00 +5°C° 0 mm 6 mps 761 mmHg 53%
    22:00 +5°C° 0 mm 5 mps 761 mmHg 54%
    23:00 +3°C° 0 mm 5 mps 761 mmHg 54%

    28 March, Thursday

    Time Temperature Precipitation Wind Pressure Humidity
    00:00 +4°C° 0 mm 4 mps 761 mmHg 54%
    01:00 +2°C° 0 mm 5 mps 761 mmHg 58%
    02:00 +2°C° 0 mm 5 mps 761 mmHg 61%
    03:00 +2°C° 0 mm 5 mps 762 mmHg 65%
    04:00 +2°C° 0 mm 5 mps 762 mmHg 69%
    05:00 +3°C° 0 mm 4 mps 762 mmHg 73%
    06:00 +2°C° 0 mm 3 mps 762 mmHg 77%
    07:00 +3°C° 0 mm 3 mps 763 mmHg 73%
    08:00 +4°C° 0 mm 3 mps 763 mmHg 68%
    09:00 +6°C° 0 mm 2 mps 763 mmHg 63%
    10:00 +7°C° 0 mm 3 mps 764 mmHg 58%
    11:00 +7°C° 0 mm 3 mps 764 mmHg 52%
    12:00 +8°C° 0 mm 3 mps 764 mmHg 46%
    13:00 +9°C° 0 mm 3 mps 764 mmHg 43%
    14:00 +8°C° 0 mm 4 mps 764 mmHg 41%
    15:00 +8°C° 0 mm 4 mps 764 mmHg 38%
    16:00 +8°C° 0 mm 4 mps 764 mmHg 39%
    17:00 +7°C° 0 mm 4 mps 764 mmHg 40%
    18:00 +7°C° 0 mm 4 mps 765 mmHg 41%
    19:00 +7°C° 0 mm 3 mps 765 mmHg 44%
    20:00 +5°C° 0 mm 3 mps 766 mmHg 46%
    21:00 +5°C° 0 mm 2 mps 766 mmHg 49%
    22:00 +5°C° 0 mm 2 mps 766 mmHg 50%
    23:00 +4°C° 0 mm 2 mps 767 mmHg 51%

    29 March, Friday

    Time Temperature Precipitation Wind Pressure Humidity
    00:00 +4°C° 0 mm 2 mps 767 mmHg 52%
    01:00 +3°C° 0 mm 2 mps 767 mmHg 57%
    02:00 +3°C° 0 mm 2 mps 767 mmHg 62%
    03:00 +1°C° 0 mm 3 mps 767 mmHg 67%
    04:00 +1°C° 0 mm 3 mps 768 mmHg 70%
    05:00 0°C° 0 mm 3 mps 768 mmHg 73%
    06:00 0°C° 0 mm 3 mps 768 mmHg 75%
    07:00 +2°C° 0 mm 2 mps 768 mmHg 68%
    08:00 +3°C° 0 mm 2 mps 768 mmHg 60%
    09:00 +4°C° 0 mm 2 mps 768 mmHg 53%
    10:00 +4°C° 0 mm 3 mps 768 mmHg 48%
    11:00 +5°C° 0 mm 3 mps 768 mmHg 43%
    12:00 +6°C° 0 mm 4 mps 767 mmHg 38%
    13:00 +7°C° 0 mm 4 mps 766 mmHg 38%
    14:00 +7°C° 0 mm 4 mps 766 mmHg 38%
    15:00 +7°C° 0 mm 5 mps 765 mmHg 38%
    16:00 +7°C° 0 mm 5 mps 765 mmHg 40%
    17:00 +7°C° 0 mm 5 mps 765 mmHg 42%
    18:00 +6°C° 0 mm 5 mps 764 mmHg 44%
    19:00 +6°C° 0 mm 5 mps 764 mmHg 47%
    20:00 +5°C° 0 mm 4 mps 764 mmHg 51%
    21:00 +5°C° 0 mm 4 mps 764 mmHg 54%
    22:00 +4°C° 0 mm 4 mps 764 mmHg 58%
    23:00 +4°C° 0 mm 4 mps 764 mmHg 61%

    30 March, Saturday

    Time Temperature Precipitation Wind Pressure Humidity
    00:00 +4°C° 0 mm 4 mps 763 mmHg 65%
    01:00 +3°C° 0 mm 3 mps 763 mmHg 67%
    02:00 +3°C° 0 mm 3 mps 763 mmHg 70%
    03:00 +4°C° 0 mm 2 mps 763 mmHg 73%
    04:00 +3°C° 0 mm 2 mps 764 mmHg 76%
    05:00 +3°C° 0 mm 2 mps 764 mmHg 79%
    06:00 +2°C° 0 mm 2 mps 764 mmHg 82%
    07:00 +3°C° 0 mm 2 mps 765 mmHg 75%
    08:00 +4°C° 0 mm 2 mps 765 mmHg 69%
    09:00 +5°C° 0 mm 2 mps 766 mmHg 63%
    10:00 +6°C° 0 mm 2 mps 766 mmHg 58%
    11:00 +7°C° 0 mm 2 mps 766 mmHg 53%
    12:00 +8°C° 0 mm 2 mps 766 mmHg 48%
    13:00 +9°C° 0 mm 2 mps 766 mmHg 46%
    14:00 +10°C° 0 mm 1 mps 766 mmHg 43%
    15:00 +11°C° 0 mm 1 mps 766 mmHg 41%
    16:00 +11°C° 0 mm 1 mps 766 mmHg 42%
    17:00 +10°C° 0 mm 1 mps 766 mmHg 43%
    18:00 +10°C° 0 mm 1 mps 766 mmHg 44%
    19:00 +8°C° 0 mm 2 mps 766 mmHg 47%
    20:00 +7°C° 0 mm 2 mps 766 mmHg 49%
    21:00 +6°C° 0 mm 2 mps 767 mmHg 52%
    22:00 +6°C° 0 mm 2 mps 767 mmHg 55%
    23:00 +4°C° 0 mm 3 mps 766 mmHg 57%
    Show more